W1LH-12 Weather Reports


time (UTC)temp
F
wind
direction
speed
knots
gust
knots
rain 1hr
in
rain 24hr
in
rain mn
in
humidity
%
barometer
mb
20260504045620 38 311 0.0 1.7 0.00 0.00 0.00 1004.1
20260504044121 39 249 0.9 2.6 0.00 0.00 0.00 1004.1
20260504042620 39 260 1.7 4.3 0.00 0.00 0.00 1003.8
20260504041620 39 205 0.0 4.3 0.00 0.00 0.00 1003.8
20260504040120 39 180 0.9 4.3 0.00 0.00 0.00 1003.4
20260504035619 39 290 1.7 4.3 0.00 0.00 0.00 1003.4
20260504032619 40 15 0.0 6.1 0.00 0.00 0.00 1003.1
20260504032119 40 305 0.0 7.0 0.00 0.00 0.00 1003.1
20260504025621 41 238 0.9 3.5 0.00 0.00 0.00 1003.1
20260504025121 41 229 0.0 2.6 0.00 0.00 0.00 1002.8
20260504020620 40 335 0.0 2.6 0.00 0.00 0.00 1002.8
20260504020121 40 318 0.0 2.6 0.00 0.00 0.00 1002.8
20260504015620 40 203 0.0 2.6 0.00 0.00 0.00 1002.4
20260504014620 40 149 0.0 0.0 0.00 0.00 0.00 1002.4
20260504013620 40 149 0.0 3.5 0.00 0.00 0.00 1002.4
20260504004619 40 214 2.6 7.0 0.00 0.00 0.00 1001.7
20260504001619 40 235 0.9 3.5 0.00 0.00 0.00 1001.4
20260504001119 40 257 0.9 2.6 0.00 0.00 0.00 1001.1
20260504000120 40 44 0.9 3.5 0.00 0.00 0.00 1001.1
20260503235619 40 163 1.7 4.3 0.00 0.00 0.00 1001.1
20260503234621 40 321 2.6 5.2 0.00 0.00 0.00 1000.7
20260503234121 40 300 0.9 6.1 0.00 0.00 0.00 1000.7
20260503233621 40 335 0.9 6.1 0.00 0.00 0.00 1000.7
20260503233120 40 308 0.9 7.8 0.00 0.00 0.00 1000.7
20260503232619 40 139 2.6 7.8 0.00 0.00 0.00 1000.7
20260503232120 40 97 0.0 5.2 0.00 0.00 0.00 1000.7